TimeMDT,TemperatureF,Dew PointF,Humidity,Sea Level PressureIn,VisibilityMPH,Wind Direction,Wind SpeedMPH,Gust SpeedMPH,PrecipitationIn,Events,Conditions,WindDirDegrees,DateUTC
12:54 AM,64.0,52.0,65,29.84,10.0,WNW,6.9,-,N/A,,Clear,300,2013-07-07 06:54:00
1:54 AM,66.0,52.0,60,29.83,10.0,SW,6.9,-,N/A,,Mostly Cloudy,230,2013-07-07 07:54:00
2:54 AM,66.9,53.1,61,29.83,10.0,SSW,8.1,-,N/A,,Partly Cloudy,200,2013-07-07 08:54:00
3:54 AM,66.0,50.0,56,29.85,10.0,WSW,8.1,-,N/A,,Clear,240,2013-07-07 09:54:00
4:54 AM,64.9,53.1,65,29.86,10.0,WSW,6.9,-,N/A,,Clear,250,2013-07-07 10:54:00
5:54 AM,66.0,52.0,60,29.86,10.0,WSW,9.2,-,N/A,,Clear,250,2013-07-07 11:54:00
6:54 AM,66.9,52.0,59,29.86,10.0,WNW,9.2,-,N/A,,Clear,290,2013-07-07 12:54:00
7:54 AM,75.0,51.1,43,29.86,10.0,WNW,9.2,-,N/A,,Clear,290,2013-07-07 13:54:00
8:54 AM,80.1,51.1,36,29.86,10.0,WNW,8.1,-,N/A,,Clear,290,2013-07-07 14:54:00
9:54 AM,82.9,50.0,32,29.85,10.0,South,8.1,-,N/A,,Clear,190,2013-07-07 15:54:00
10:54 AM,84.9,48.0,28,29.86,10.0,ENE,4.6,-,N/A,,Clear,60,2013-07-07 16:54:00
11:54 AM,88.0,46.0,23,29.84,10.0,Calm,Calm,-,N/A,,Clear,0,2013-07-07 17:54:00
12:54 PM,91.0,45.0,20,29.82,10.0,NE,8.1,-,N/A,,Clear,40,2013-07-07 18:54:00
1:54 PM,88.0,45.0,22,29.82,10.0,ESE,5.8,-,N/A,,Partly Cloudy,120,2013-07-07 19:54:00
2:45 PM,77.0,53.6,44,30.12,10.0,WSW,25.3,33.4,N/A,,Scattered Clouds,240,2013-07-07 20:45:00
2:54 PM,75.0,54.0,48,29.88,10.0,WSW,24.2,33.4,N/A,,Partly Cloudy,240,2013-07-07 20:54:00
3:54 PM,75.9,53.1,45,29.86,10.0,WSW,21.9,29.9,0.00,,Mostly Cloudy,240,2013-07-07 21:54:00
4:54 PM,75.9,52.0,43,29.83,10.0,West,17.3,-,N/A,,Clear,260,2013-07-07 22:54:00
5:54 PM,82.9,52.0,34,29.82,10.0,ESE,5.8,-,N/A,,Clear,110,2013-07-07 23:54:00
6:54 PM,84.0,52.0,33,29.81,10.0,East,8.1,-,N/A,,Clear,90,2013-07-08 00:54:00
7:54 PM,80.1,52.0,38,29.83,10.0,NNW,3.5,-,N/A,,Clear,330,2013-07-08 01:54:00
8:54 PM,75.9,50.0,40,29.88,10.0,NNW,15.0,28.8,N/A,,Mostly Cloudy,330,2013-07-08 02:54:00
9:54 PM,73.0,50.0,44,29.91,10.0,NW,6.9,-,N/A,,Clear,310,2013-07-08 03:54:00
10:54 PM,72.0,50.0,46,29.94,10.0,SSW,6.9,-,N/A,,Partly Cloudy,200,2013-07-08 04:54:00
11:54 PM,69.1,57.9,68,29.91,10.0,ESE,4.6,-,0.00,Rain,Light Rain,110,2013-07-08 05:54:00